SCP
0 0 0 0 0 0 0 0 0 0 0 0 0 0 0 0 0 0 0 0 0 0 0 0 0 0 0 0 0 0 0 0 0 0 0 0 0 0
0 0 0 0 0 0 0 0 0 0 0 0 0 0 0 0 0 0 0 0 0 0 0 0 0 0 0 0 0 0 0 0 0 0 0 0 0 0
0 0 0 0 0 0 0 0 0 0 0 0 0 0 0 0 0 0 0 0 0 0 0 0 0 0 0 0 0 0 0 0 0 0 0 0 0 0
0 0 0 0 0 0 0 0 0 0 0 0 0 0 0 0 0 0 0 0 0 0 0 0 0 0 0 0 0 0 0 0 0 0 0 0 0 0
0 0 0 0 0 0 0 0 0 0 0 0 0 0 0 0 0 0 0 0 0 0 0 0 0 0 0 0 0 0 0 0 0 0 0 0 0 0
0 0 0 0 0 0 0 0 0 0 0 0 0 0 0 0 0 0 0 0 0 0 0 0 0 0 0 0 0 0 0 0 0 0 0 0 0 0
0 0 0 0 0 0 0 0 0 0 0 0 0 0 0 0 0 0 0 0 0 0 0 0 0 0 0 0 0 0 0 0 0 0 0 0 0 0
0 0 0 0 0 0 0 0 0 0 0 0 0 0 0 0 0 0 0 0 0 0 0 0 0 0 0 0 0 0 0 0 0 0 0 0 0 0
0 0 0 0 0 0 0 0 0 0 0 0 0 0 0 0 0 0 0 0 0 0 0 0 0 0 0 0 0 0 0 0 0 -0 -0 -0 0 0
0 0 0 0 0 0 0 0 0 0 0 0 0 0 0 0 0 0 0 0 0 0 0 0 0 0 0 0 -0 -0 -0 -0 -0 -0 0 0 0 0
0 0 0 0 0 0 0 0 0 0 0 0 0 0 0 0 0 0 0 0 0 0 0 0 0 0 0 0 -0 -0 -0 0 0 0 0 0 0 0
0 0 0 -0 0 0 0 -0 0 0 0 0 0 0 0 0 0 0 0 0 0 0 0 0 0 0 0 -0 0 0 0 0 0 0 0 0 0 0
0 0 0 0 0 0 0 0 0 0 0 -0 -0 -0 -0 -0 0 0 -0 0 0 0 -0 -0 -0 -0 -0 0 0 0 0 0 0 0 0 0 0 0
0 0 0 -0 -0 0 0 -0 0 0 0 0 0 0 0 0 0 0 -0 -0 -0 -0 -0 0 0 0 0 0 0 0 0 0 0 0 0 0 0 0
-0 0 0 0 0 0 -0 0 -0 0 -0 0 0 0 -0 -0 -0 -0 -0 -0 -0 -0 0 0 0 0 0 -0 0 0 0 0 0 0 0 0 0 0
0 0 0 0 0 -0 -0 0 0 -0 -0 -0 0 0 -0 0 -0 0 0 0 0 0 0 -0 0 0 0 0 0 0 0 0 0 0 0 0 0 0
-0 -0 0 0 0 0 0 0 0 0 0 0 0 0 0 0 -0 -0 -0 0 -0 -0 -0 0 0 0 0 0 0 0 0 0 0 0 0 0 0 0
0 0 -0 -0 0 0 0 0 0 0 0 0 0 0 0 0 0 0 0 0 0 0 0 0 0 0 0 0 0 0 0 0 0 0 0 0 0 0
-0 -0 -0 0 0 0 0 0 0 -0 -0 0 -0 0 0 0 0 0 0 0 0 0 0 0 0 0 0 0 0 0 0 0 0 0 0 0 0 0
0 -0 -0 -0 -0 -0 -0 0 0 0 -0 -0 -0 -0 -0 0 0 0 0 0 0 0 0 0 0 0 0 0 0 0 0 0 0 0 0 0 0 0
0 0 -0 -0 -0 -0 -0 0 0 0 0 -0 -0 -0 -0 0 0 0 0 0 0 0 0 0 0 0 0 0 0 0 0 0 0 0 0 0 0 0
-0 0 -0 0 -0 0 0 0 -0 0 -0 -0 -0 0 0 0 0 0 0 0 0 0 0 0 0 0 0 0 0 0 0 0 0 0 0 0 0 0
0 0 0 0 0 0 0 0 0 0 0 0 0 0 0 0 0 0 0 0 0 0 0 0 0 0 0 0 0 0 0 0 0 0 0 0 0 0
Wind_Speed_500mb
41 48 55 60 57 61 59 63 67 68 76 83 89 101 98 91 87 76 77 74 73 72 67 59 56 58 59 53 49 51 52 49 46 42 40 38 37 34
39 45 48 50 52 47 52 55 63 72 84 76 84 86 82 92 104 91 96 92 93 84 80 70 65 62 59 55 51 44 40 40 40 39 37 36 34 33
43 45 43 43 48 53 52 56 57 64 73 60 63 83 89 93 100 93 96 103 102 100 99 91 76 66 59 50 43 44 41 39 37 36 35 35 33 31
39 38 40 43 45 47 49 52 56 59 59 66 77 63 81 75 84 82 95 94 100 117 108 79 75 68 61 55 47 39 37 36 33 32 30 30 29 29
34 33 30 29 26 29 40 48 52 55 60 58 58 70 66 59 83 81 85 92 99 103 89 72 75 70 65 56 48 42 36 36 31 26 22 24 21 21
32 35 36 33 33 31 34 39 46 54 54 59 55 58 61 65 72 76 81 80 90 89 75 78 75 72 56 56 53 45 36 30 29 32 31 27 26 27
33 34 41 44 43 40 35 37 45 48 45 48 51 56 61 63 72 77 80 85 84 86 86 86 70 58 62 61 53 42 42 42 30 35 33 27 29 35
33 32 31 36 41 49 40 27 35 49 45 38 45 54 55 57 68 80 84 84 70 71 79 61 57 63 57 57 63 57 42 36 34 34 39 46 45 48
29 31 35 31 27 20 17 30 35 39 35 32 39 49 56 57 64 73 69 71 59 49 52 60 66 64 71 67 52 47 35 33 36 46 43 51 53 52
25 36 33 24 15 23 21 19 12 20 31 29 12 24 35 46 62 71 70 66 57 61 74 61 61 57 55 55 43 42 35 36 45 53 53 46 45 47
22 18 21 8 17 26 23 16 12 12 20 16 17 29 15 34 58 68 46 55 33 31 41 34 29 25 31 27 24 28 34 43 45 46 48 47 47 48
3 8 11 15 18 18 20 21 24 28 26 27 28 26 24 23 32 33 41 50 46 35 26 25 21 21 21 35 37 35 31 26 22 22 24 28 35 45
9 1 10 9 14 17 15 21 28 19 17 12 8 7 21 24 24 32 23 30 29 22 17 11 16 18 24 15 18 20 23 25 29 31 35 39 46 55
11 10 5 3 13 5 12 14 20 20 27 32 27 26 32 36 29 22 18 13 8 11 15 15 16 20 21 24 29 23 26 30 39 46 52 58 62 73
13 9 11 2 10 17 22 21 24 17 17 15 14 13 6 2 6 9 11 14 15 14 16 18 20 22 25 30 36 37 40 40 49 57 58 65 83 82
12 19 19 23 25 19 13 14 17 18 17 15 12 13 15 19 18 21 23 22 24 21 21 21 21 23 31 36 41 50 55 65 70 65 72 84 87 83
17 25 33 32 29 23 22 19 14 15 15 14 15 16 19 21 20 23 21 22 22 17 21 22 25 34 41 46 56 62 66 66 69 78 82 92 88 84
34 39 38 36 32 31 27 19 13 14 13 10 6 4 4 6 7 10 12 14 17 18 21 24 35 46 56 63 62 57 64 75 83 80 81 84 90 77
45 41 41 41 39 31 27 25 24 21 20 16 13 11 12 13 15 18 21 26 30 34 39 46 53 58 62 68 61 67 70 68 82 78 70 69 80 90
45 45 40 35 35 34 31 32 34 35 34 31 28 26 23 22 23 23 27 32 38 44 47 48 53 56 55 58 66 76 75 82 65 65 67 69 83 93
51 50 48 42 40 37 39 40 38 38 37 39 41 42 39 36 35 36 39 43 45 47 52 56 54 52 56 64 71 82 84 57 55 64 70 73 91 100
61 58 55 50 43 39 36 34 39 43 42 42 42 41 43 44 45 46 47 48 49 50 54 52 50 52 51 71 82 71 64 66 69 72 77 82 83 77
58 54 49 51 46 42 43 42 40 39 41 43 43 40 38 41 43 47 50 51 51 52 52 51 50 56 75 64 60 63 68 72 77 86 89 78 79 75
Wind_Direction_500mb
275 269 267 271 270 267 265 264 261 258 257 262 256 255 252 252 259 259 265 263 256 250 249 245 237 230 227 227 217 217 220 224 226 225 223 224 221 224
276 273 274 275 275 269 266 253 250 256 262 258 259 259 261 262 255 257 261 260 256 250 243 235 227 220 222 222 222 225 224 227 228 226 225 224 224 226
289 288 286 279 273 274 270 267 259 255 261 265 264 259 260 255 260 256 258 254 249 242 240 230 220 218 222 222 221 221 222 224 228 225 224 227 228 231
304 297 292 290 290 286 279 273 268 261 267 270 268 272 258 257 258 259 259 243 248 241 230 209 211 210 213 216 216 214 213 217 218 219 220 227 233 235
313 315 317 311 310 314 304 293 284 273 264 264 270 268 264 270 257 250 240 243 240 233 221 205 207 208 210 206 205 203 194 196 201 207 218 225 220 226
319 319 313 306 299 302 308 310 303 294 285 271 262 268 267 261 250 241 236 232 226 215 210 201 203 201 195 196 187 181 195 198 208 220 220 227 233 244
340 322 307 297 291 291 303 314 321 303 288 278 262 267 266 260 245 236 228 218 211 209 196 192 188 188 186 187 191 191 203 204 214 235 228 243 255 258
345 339 329 333 323 278 284 300 323 329 302 277 266 267 268 268 244 231 218 205 186 199 198 199 189 183 197 191 194 199 203 206 223 236 253 256 258 265
340 343 334 337 340 333 285 300 306 319 318 300 275 266 259 254 236 211 198 190 179 183 183 184 200 195 200 203 208 205 223 236 238 245 258 264 262 262
334 331 339 2 356 346 315 315 321 11 37 25 281 256 244 218 201 179 158 158 141 149 174 173 192 213 229 233 214 213 228 237 251 256 261 259 264 260
335 33 11 342 53 42 41 72 59 35 38 36 28 81 139 169 158 154 143 141 153 178 167 142 194 199 211 222 237 241 245 255 254 261 262 262 265 267
223 340 346 17 37 355 346 346 84 50 70 74 75 111 130 146 120 132 137 137 144 148 169 155 174 185 231 246 242 236 233 237 240 253 262 266 274 277
214 290 14 30 16 21 44 58 21 55 72 77 130 91 129 134 121 143 128 131 146 141 144 192 217 200 214 206 222 240 238 241 256 261 267 272 282 282
214 242 305 352 15 55 359 13 13 15 39 59 54 72 84 94 120 129 138 149 158 185 207 226 238 236 245 259 264 257 256 264 271 276 280 283 284 290
226 257 263 330 324 348 348 17 38 29 11 14 71 96 111 346 192 238 230 233 234 231 229 228 241 255 258 259 269 276 281 280 287 293 297 294 295 295
213 222 302 315 322 338 328 317 313 314 311 310 299 274 249 243 240 235 233 240 252 250 236 245 251 254 266 274 281 284 288 291 292 290 294 295 297 294
284 276 279 290 303 307 302 299 297 293 294 292 278 257 245 243 238 238 239 237 236 223 228 241 256 266 274 281 284 287 290 291 295 297 298 297 294 295
278 278 282 289 298 305 302 286 265 284 299 301 286 264 234 239 234 237 239 242 252 258 264 265 270 276 280 285 289 291 292 294 299 300 297 294 295 297
261 272 283 290 295 298 291 274 264 273 278 280 284 290 294 293 289 282 277 274 273 275 277 276 277 281 286 286 288 286 287 293 299 298 291 294 296 297
266 270 277 290 295 293 289 280 271 271 272 272 273 276 279 285 288 282 291 294 290 286 283 284 289 288 284 287 289 291 296 303 298 296 299 299 299 302
264 268 273 278 283 284 291 288 277 270 266 263 261 260 262 270 272 277 283 287 289 286 289 289 288 280 282 287 292 295 299 301 301 300 300 299 302 303
264 266 273 276 278 281 280 276 277 274 269 266 265 263 261 265 273 282 286 287 283 286 286 281 277 280 289 296 295 297 303 303 302 300 300 301 305 293
268 270 271 275 278 278 280 283 282 278 276 271 267 265 268 274 277 279 284 287 286 283 277 277 278 283 297 298 295 297 299 301 305 307 306 313 312 311
Wind_Speed_850mb
41 48 55 60 57 61 59 63 67 68 76 83 89 101 98 91 87 76 77 74 73 72 67 59 56 58 59 53 49 51 52 49 46 42 40 38 37 34
39 45 48 50 52 47 52 55 63 72 84 76 84 86 82 92 104 91 96 92 93 84 80 70 65 62 59 55 51 44 40 40 40 39 37 36 34 33
43 45 43 43 48 53 52 56 57 64 73 60 63 83 89 93 100 93 96 103 102 100 99 91 76 66 59 50 43 44 41 39 37 36 35 35 33 31
39 38 40 43 45 47 49 52 56 59 59 66 77 63 81 75 84 82 95 94 100 117 108 79 75 68 61 55 47 39 37 36 33 32 30 30 29 29
34 33 30 29 26 29 40 48 52 55 60 58 58 70 66 59 83 81 85 92 99 103 89 72 75 70 65 56 48 42 36 36 31 26 22 24 21 21
32 35 36 33 33 31 34 39 46 54 54 59 55 58 61 65 72 76 81 80 90 89 75 78 75 72 56 56 53 45 36 30 29 32 31 27 26 27
33 34 41 44 43 40 35 37 45 48 45 48 51 56 61 63 72 77 80 85 84 86 86 86 70 58 62 61 53 42 42 42 30 35 33 27 29 35
33 32 31 36 41 49 40 27 35 49 45 38 45 54 55 57 68 80 84 84 70 71 79 61 57 63 57 57 63 57 42 36 34 34 39 46 45 48
29 31 35 31 27 20 17 30 35 39 35 32 39 49 56 57 64 73 69 71 59 49 52 60 66 64 71 67 52 47 35 33 36 46 43 51 53 52
25 36 33 24 15 23 21 19 12 20 31 29 12 24 35 46 62 71 70 66 57 61 74 61 61 57 55 55 43 42 35 36 45 53 53 46 45 47
22 18 21 8 17 26 23 16 12 12 20 16 17 29 15 34 58 68 46 55 33 31 41 34 29 25 31 27 24 28 34 43 45 46 48 47 47 48
3 8 11 15 18 18 20 21 24 28 26 27 28 26 24 23 32 33 41 50 46 35 26 25 21 21 21 35 37 35 31 26 22 22 24 28 35 45
9 1 10 9 14 17 15 21 28 19 17 12 8 7 21 24 24 32 23 30 29 22 17 11 16 18 24 15 18 20 23 25 29 31 35 39 46 55
11 10 5 3 13 5 12 14 20 20 27 32 27 26 32 36 29 22 18 13 8 11 15 15 16 20 21 24 29 23 26 30 39 46 52 58 62 73
13 9 11 2 10 17 22 21 24 17 17 15 14 13 6 2 6 9 11 14 15 14 16 18 20 22 25 30 36 37 40 40 49 57 58 65 83 82
12 19 19 23 25 19 13 14 17 18 17 15 12 13 15 19 18 21 23 22 24 21 21 21 21 23 31 36 41 50 55 65 70 65 72 84 87 83
17 25 33 32 29 23 22 19 14 15 15 14 15 16 19 21 20 23 21 22 22 17 21 22 25 34 41 46 56 62 66 66 69 78 82 92 88 84
34 39 38 36 32 31 27 19 13 14 13 10 6 4 4 6 7 10 12 14 17 18 21 24 35 46 56 63 62 57 64 75 83 80 81 84 90 77
45 41 41 41 39 31 27 25 24 21 20 16 13 11 12 13 15 18 21 26 30 34 39 46 53 58 62 68 61 67 70 68 82 78 70 69 80 90
45 45 40 35 35 34 31 32 34 35 34 31 28 26 23 22 23 23 27 32 38 44 47 48 53 56 55 58 66 76 75 82 65 65 67 69 83 93
51 50 48 42 40 37 39 40 38 38 37 39 41 42 39 36 35 36 39 43 45 47 52 56 54 52 56 64 71 82 84 57 55 64 70 73 91 100
61 58 55 50 43 39 36 34 39 43 42 42 42 41 43 44 45 46 47 48 49 50 54 52 50 52 51 71 82 71 64 66 69 72 77 82 83 77
58 54 49 51 46 42 43 42 40 39 41 43 43 40 38 41 43 47 50 51 51 52 52 51 50 56 75 64 60 63 68 72 77 86 89 78 79 75
Wind_Direction_850mb
275 269 267 271 270 267 265 264 261 258 257 262 256 255 252 252 259 259 265 263 256 250 249 245 237 230 227 227 217 217 220 224 226 225 223 224 221 224
276 273 274 275 275 269 266 253 250 256 262 258 259 259 261 262 255 257 261 260 256 250 243 235 227 220 222 222 222 225 224 227 228 226 225 224 224 226
289 288 286 279 273 274 270 267 259 255 261 265 264 259 260 255 260 256 258 254 249 242 240 230 220 218 222 222 221 221 222 224 228 225 224 227 228 231
304 297 292 290 290 286 279 273 268 261 267 270 268 272 258 257 258 259 259 243 248 241 230 209 211 210 213 216 216 214 213 217 218 219 220 227 233 235
313 315 317 311 310 314 304 293 284 273 264 264 270 268 264 270 257 250 240 243 240 233 221 205 207 208 210 206 205 203 194 196 201 207 218 225 220 226
319 319 313 306 299 302 308 310 303 294 285 271 262 268 267 261 250 241 236 232 226 215 210 201 203 201 195 196 187 181 195 198 208 220 220 227 233 244
340 322 307 297 291 291 303 314 321 303 288 278 262 267 266 260 245 236 228 218 211 209 196 192 188 188 186 187 191 191 203 204 214 235 228 243 255 258
345 339 329 333 323 278 284 300 323 329 302 277 266 267 268 268 244 231 218 205 186 199 198 199 189 183 197 191 194 199 203 206 223 236 253 256 258 265
340 343 334 337 340 333 285 300 306 319 318 300 275 266 259 254 236 211 198 190 179 183 183 184 200 195 200 203 208 205 223 236 238 245 258 264 262 262
334 331 339 2 356 346 315 315 321 11 37 25 281 256 244 218 201 179 158 158 141 149 174 173 192 213 229 233 214 213 228 237 251 256 261 259 264 260
335 33 11 342 53 42 41 72 59 35 38 36 28 81 139 169 158 154 143 141 153 178 167 142 194 199 211 222 237 241 245 255 254 261 262 262 265 267
223 340 346 17 37 355 346 346 84 50 70 74 75 111 130 146 120 132 137 137 144 148 169 155 174 185 231 246 242 236 233 237 240 253 262 266 274 277
214 290 14 30 16 21 44 58 21 55 72 77 130 91 129 134 121 143 128 131 146 141 144 192 217 200 214 206 222 240 238 241 256 261 267 272 282 282
214 242 305 352 15 55 359 13 13 15 39 59 54 72 84 94 120 129 138 149 158 185 207 226 238 236 245 259 264 257 256 264 271 276 280 283 284 290
226 257 263 330 324 348 348 17 38 29 11 14 71 96 111 346 192 238 230 233 234 231 229 228 241 255 258 259 269 276 281 280 287 293 297 294 295 295
213 222 302 315 322 338 328 317 313 314 311 310 299 274 249 243 240 235 233 240 252 250 236 245 251 254 266 274 281 284 288 291 292 290 294 295 297 294
284 276 279 290 303 307 302 299 297 293 294 292 278 257 245 243 238 238 239 237 236 223 228 241 256 266 274 281 284 287 290 291 295 297 298 297 294 295
278 278 282 289 298 305 302 286 265 284 299 301 286 264 234 239 234 237 239 242 252 258 264 265 270 276 280 285 289 291 292 294 299 300 297 294 295 297
261 272 283 290 295 298 291 274 264 273 278 280 284 290 294 293 289 282 277 274 273 275 277 276 277 281 286 286 288 286 287 293 299 298 291 294 296 297
266 270 277 290 295 293 289 280 271 271 272 272 273 276 279 285 288 282 291 294 290 286 283 284 289 288 284 287 289 291 296 303 298 296 299 299 299 302
264 268 273 278 283 284 291 288 277 270 266 263 261 260 262 270 272 277 283 287 289 286 289 289 288 280 282 287 292 295 299 301 301 300 300 299 302 303
264 266 273 276 278 281 280 276 277 274 269 266 265 263 261 265 273 282 286 287 283 286 286 281 277 280 289 296 295 297 303 303 302 300 300 301 305 293
268 270 271 275 278 278 280 283 282 278 276 271 267 265 268 274 277 279 284 287 286 283 277 277 278 283 297 298 295 297 299 301 305 307 306 313 312 311